Location: San Bernardino
(34.1083°N, 117.2898°W)
Time: 15:01:26
(UTC+00:00)

KORONAS-FOTON - Pass Details

Date: 13 April 2024
Orbit: 478 x 498 km, 82.4° (Epoch: 19 May)

Event Time Altitude Azimuth Distance (km) Brightness Sun altitude
Rises 12:45:10 0° 197° (SSW) 2,559 7.0 -7.8°
Reaches altitude 10° 12:47:19 10° 203° (SSW) 1,677 6.0 -7.4°
Maximum altitude 12:50:53 48° 278° (W) 642 3.9 -6.7°
Drops below altitude 10° 12:54:26 10° 354° (N) 1,674 6.5 -5.9°
Sets 12:56:35 0° 1° (N) 2,554 7.5 -5.5°
